• In Austria
  • List of Countries
  • For 7 days
  • Water Temperature
  • Satellite Maps
  • Weather Map
  • News
  • Weather Widgets
  • user-avatar
    Login

    Hourly Weather Boma

    Today, 18 October, Thursday

    Time Temperature Precipitation Wind Pressure Humidity
    00:00 +20°C° 0.2 mm 0 mps 700 mmHg 96%
    01:00 +20°C° 0 mm 0 mps 700 mmHg 96%
    02:00 +20°C° 0.4 mm 0 mps 700 mmHg 97%
    03:00 +20°C° 0.4 mm 0 mps 700 mmHg 98%
    04:00 +19°C° 0.4 mm 0 mps 700 mmHg 98%
    05:00 +20°C° 0.1 mm 0 mps 700 mmHg 98%
    06:00 +20°C° 0.1 mm 0 mps 700 mmHg 97%
    07:00 +20°C° 0.1 mm 0 mps 700 mmHg 96%
    08:00 +24°C° 0 mm 1 mps 701 mmHg 87%
    09:00 +26°C° 0 mm 1 mps 701 mmHg 77%
    10:00 +28°C° 0 mm 1 mps 701 mmHg 67%
    11:00 +29°C° 0.3 mm 1 mps 701 mmHg 65%
    12:00 +30°C° 0.3 mm 1 mps 700 mmHg 62%
    13:00 +30°C° 0.3 mm 0 mps 700 mmHg 60%
    14:00 +28°C° 1.1 mm 0 mps 699 mmHg 67%
    15:00 +27°C° 1.1 mm 0 mps 698 mmHg 75%
    16:00 +26°C° 1.1 mm 0 mps 698 mmHg 83%
    17:00 +25°C° 0.5 mm 0 mps 698 mmHg 87%
    18:00 +25°C° 0.5 mm 1 mps 698 mmHg 92%
    19:00 +23°C° 0.5 mm 1 mps 698 mmHg 96%
    20:00 +23°C° 0 mm 1 mps 699 mmHg 97%
    21:00 +23°C° 0 mm 1 mps 699 mmHg 97%
    22:00 +20°C° 0 mm 0 mps 700 mmHg 98%
    23:00 +20°C° 0.1 mm 0 mps 700 mmHg 98%

    Tomorrow, 19 October, Friday

    Time Temperature Precipitation Wind Pressure Humidity
    00:00 +20°C° 0.1 mm 0 mps 699 mmHg 98%
    01:00 +20°C° 0.1 mm 0 mps 699 mmHg 98%
    02:00 +19°C° 0 mm 0 mps 699 mmHg 98%
    03:00 +19°C° 0 mm 0 mps 699 mmHg 99%
    04:00 +19°C° 0 mm 0 mps 698 mmHg 99%
    05:00 +19°C° 0 mm 0 mps 699 mmHg 98%
    06:00 +20°C° 0 mm 0 mps 699 mmHg 98%
    07:00 +20°C° 0 mm 0 mps 700 mmHg 97%
    08:00 +22°C° 0 mm 0 mps 700 mmHg 89%
    09:00 +24°C° 0 mm 0 mps 701 mmHg 80%
    10:00 +28°C° 0 mm 1 mps 701 mmHg 71%
    11:00 +29°C° 0 mm 0 mps 701 mmHg 62%
    12:00 +31°C° 0 mm 0 mps 700 mmHg 53%
    13:00 +33°C° 0 mm 0 mps 700 mmHg 43%
    14:00 +32°C° 0 mm 0 mps 699 mmHg 44%
    15:00 +31°C° 0 mm 0 mps 699 mmHg 45%
    16:00 +33°C° 0 mm 1 mps 698 mmHg 46%
    17:00 +30°C° 0 mm 1 mps 698 mmHg 54%
    18:00 +26°C° 0 mm 0 mps 698 mmHg 63%
    19:00 +23°C° 0 mm 0 mps 698 mmHg 71%
    20:00 +23°C° 0 mm 0 mps 699 mmHg 73%
    21:00 +22°C° 0 mm 0 mps 699 mmHg 75%
    22:00 +21°C° 0 mm 0 mps 699 mmHg 78%
    23:00 +21°C° 0 mm 0 mps 699 mmHg 80%

    Day after tomorrow, 20 October, Saturday

    Time Temperature Precipitation Wind Pressure Humidity
    00:00 +21°C° 0 mm 0 mps 699 mmHg 82%
    01:00 +20°C° 0 mm 0 mps 699 mmHg 84%
    02:00 +20°C° 0 mm 0 mps 699 mmHg 85%
    03:00 +20°C° 0 mm 0 mps 698 mmHg 86%
    04:00 +20°C° 0 mm 0 mps 698 mmHg 87%
    05:00 +20°C° 0 mm 0 mps 699 mmHg 87%
    06:00 +20°C° 0 mm 0 mps 699 mmHg 86%
    07:00 +21°C° 0 mm 0 mps 700 mmHg 86%
    08:00 +25°C° 0 mm 1 mps 701 mmHg 78%
    09:00 +27°C° 0 mm 1 mps 701 mmHg 71%
    10:00 +30°C° 0 mm 1 mps 702 mmHg 63%
    11:00 +30°C° 0.7 mm 1 mps 701 mmHg 65%
    12:00 +30°C° 0.7 mm 1 mps 700 mmHg 67%
    13:00 +30°C° 0.7 mm 1 mps 700 mmHg 69%
    14:00 +30°C° 0.2 mm 1 mps 699 mmHg 66%
    15:00 +30°C° 0.2 mm 1 mps 699 mmHg 64%
    16:00 +28°C° 0.2 mm 0 mps 699 mmHg 61%
    17:00 +26°C° 0 mm 0 mps 699 mmHg 68%
    18:00 +24°C° 0 mm 0 mps 699 mmHg 75%
    19:00 +23°C° 0 mm 0 mps 699 mmHg 83%
    20:00 +22°C° 0.5 mm 0 mps 700 mmHg 86%
    21:00 +22°C° 0.5 mm 0 mps 700 mmHg 90%
    22:00 +21°C° 0.5 mm 0 mps 700 mmHg 93%
    23:00 +21°C° 0 mm 0 mps 700 mmHg 94%

    21 October, Sunday

    Time Temperature Precipitation Wind Pressure Humidity
    00:00 +21°C° 0 mm 0 mps 700 mmHg 94%
    01:00 +20°C° 0 mm 0 mps 699 mmHg 95%
    02:00 +20°C° 0 mm 0 mps 699 mmHg 96%
    03:00 +20°C° 0 mm 0 mps 699 mmHg 96%
    04:00 +20°C° 0 mm 0 mps 698 mmHg 97%
    05:00 +20°C° 0 mm 0 mps 699 mmHg 96%
    06:00 +20°C° 0 mm 0 mps 700 mmHg 94%
    07:00 +21°C° 0 mm 0 mps 700 mmHg 93%
    08:00 +24°C° 0 mm 0 mps 700 mmHg 80%
    09:00 +29°C° 0 mm 1 mps 701 mmHg 68%
    10:00 +31°C° 0 mm 1 mps 701 mmHg 55%
    11:00 +32°C° 0.1 mm 1 mps 700 mmHg 51%
    12:00 +34°C° 0.1 mm 2 mps 700 mmHg 46%
    13:00 +35°C° 0.1 mm 2 mps 699 mmHg 42%
    14:00 +35°C° 0 mm 2 mps 698 mmHg 44%
    15:00 +34°C° 0 mm 2 mps 698 mmHg 47%
    16:00 +34°C° 0 mm 2 mps 698 mmHg 49%
    17:00 +31°C° 0 mm 1 mps 698 mmHg 58%
    18:00 +28°C° 0 mm 1 mps 698 mmHg 66%
    19:00 +26°C° 0 mm 1 mps 698 mmHg 75%
    20:00 +25°C° 0.5 mm 1 mps 699 mmHg 80%
    21:00 +24°C° 0.5 mm 1 mps 699 mmHg 85%
    22:00 +21°C° 0.5 mm 0 mps 699 mmHg 91%
    23:00 +21°C° 1.2 mm 0 mps 699 mmHg 93%

    22 October, Monday

    Time Temperature Precipitation Wind Pressure Humidity
    00:00 +21°C° 1.2 mm 0 mps 699 mmHg 94%
    01:00 +20°C° 1.2 mm 0 mps 698 mmHg 96%
    02:00 +20°C° 1 mm 0 mps 698 mmHg 97%
    03:00 +20°C° 1 mm 0 mps 698 mmHg 97%
    04:00 +20°C° 1 mm 0 mps 698 mmHg 98%
    05:00 +20°C° 0.1 mm 0 mps 699 mmHg 97%
    06:00 +21°C° 0.1 mm 0 mps 699 mmHg 97%
    07:00 +21°C° 0.1 mm 0 mps 700 mmHg 96%
    08:00 +23°C° 0.4 mm 0 mps 700 mmHg 88%
    09:00 +25°C° 0.4 mm 0 mps 700 mmHg 80%
    10:00 +28°C° 0.4 mm 0 mps 700 mmHg 72%
    11:00 +31°C° 0.3 mm 1 mps 699 mmHg 64%
    12:00 +32°C° 0.3 mm 1 mps 699 mmHg 56%
    13:00 +34°C° 0.3 mm 2 mps 698 mmHg 48%
    14:00 +33°C° 0 mm 1 mps 698 mmHg 50%
    15:00 +32°C° 0 mm 1 mps 698 mmHg 52%
    16:00 +32°C° 0 mm 1 mps 697 mmHg 55%
    17:00 +30°C° 0 mm 1 mps 698 mmHg 62%
    18:00 +28°C° 0 mm 1 mps 698 mmHg 68%
    19:00 +26°C° 0 mm 1 mps 698 mmHg 75%
    20:00 +25°C° 0.2 mm 1 mps 698 mmHg 80%
    21:00 +25°C° 0.2 mm 1 mps 699 mmHg 85%
    22:00 +24°C° 0.2 mm 1 mps 699 mmHg 89%
    23:00 +21°C° 0.6 mm 0 mps 699 mmHg 92%

    23 October, Tuesday

    Time Temperature Precipitation Wind Pressure Humidity
    00:00 +21°C° 0.6 mm 0 mps 698 mmHg 94%
    01:00 +20°C° 0.6 mm 0 mps 698 mmHg 97%
    02:00 +20°C° 0 mm 0 mps 698 mmHg 97%
    03:00 +20°C° 0 mm 0 mps 698 mmHg 98%
    04:00 +20°C° 0 mm 0 mps 698 mmHg 98%
    05:00 +20°C° 0 mm 0 mps 699 mmHg 97%
    06:00 +21°C° 0 mm 0 mps 699 mmHg 96%
    07:00 +21°C° 0 mm 0 mps 700 mmHg 95%
    08:00 +23°C° 0.2 mm 0 mps 700 mmHg 87%
    09:00 +26°C° 0.2 mm 0 mps 700 mmHg 79%
    10:00 +28°C° 0.2 mm 0 mps 700 mmHg 71%
    11:00 +29°C° 0.4 mm 0 mps 700 mmHg 63%
    12:00 +32°C° 0.4 mm 1 mps 699 mmHg 55%
    13:00 +33°C° 0.4 mm 1 mps 699 mmHg 48%
    14:00 +33°C° 0 mm 1 mps 698 mmHg 49%
    15:00 +33°C° 0 mm 1 mps 698 mmHg 50%
    16:00 +33°C° 0 mm 1 mps 698 mmHg 52%
    17:00 +30°C° 0.6 mm 1 mps 698 mmHg 64%
    18:00 +27°C° 0.6 mm 1 mps 698 mmHg 77%
    19:00 +25°C° 0.6 mm 1 mps 698 mmHg 89%
    20:00 +24°C° 0.5 mm 1 mps 699 mmHg 91%
    21:00 +24°C° 0.5 mm 1 mps 699 mmHg 94%
    22:00 +21°C° 0.5 mm 0 mps 699 mmHg 96%
    23:00 +21°C° 0.8 mm 0 mps 699 mmHg 96%
    Show more